Regional Weather Roundup
Issued by NWS State College, PA

Home | Current Version | Previous Version | Graphics & Text | Print | Product List | Glossary On
Versions: 1 2 3 4 5 6 7 8 9 10 11 12 13 14 15 16 17 18 19 20 21 22 23 24 25 26 27 28 29 30 31 32 33 34 35 36 37 38 39 40 41 42 43 44 45 46 47 48 49 50
000
ASUS41 KCTP 011103
RWRCTP

REGIONAL WEATHER ROUNDUP
NATIONAL WEATHER SERVICE STATE COLLEGE PA
700 AM EDT SUN MAY 01 2016

Note: "fair" indicates few or no clouds below 12,000 feet with no
significant weather and/or obstructions to visibility.

* = STATION THAT DOES NOT REPORT PRECIPITATION /E.G. RAIN...SNOW...ETC/
    THUNDER OR FOG.

PAZ002>004-007>009-013>016-020>023-029>032-011200-
WESTERN PENNSYLVANIA

CITY           SKY/WX    TMP DP  RH WIND       PRES   REMARKS
ERIE           CLOUDY    50  48  93 E6        29.88F
MEADVILLE        N/A    N/A N/A N/A MISG      29.89R
FRANKLIN*      CLOUDY    52  50  93 S7        29.93R VSB 1/2
NEW CASTLE     CLOUDY    56  55  97 CALM      29.92R
BEAVER COUNTY  NOT AVBL
BUTLER*        CLOUDY    55  54  94 S6        29.95R
PITTSBURGH INT LGT RAIN  59  57  93 S5        29.91R FOG
PITTSBURGH     CLOUDY    58  56  93 S8        29.92S
INDIANA*       CLOUDY    54  54 100 S8        29.98R
LATROBE        CLOUDY    59  59 100 SW9       29.95R
WASHINGTON CO* CLOUDY    61  57  88 S7        29.94S
$$

PAZ004>006-010>012-017>019-024>028-033>037-041-042-045-046-049>053-011200-
CENTRAL PENNSYLVANIA

CITY           SKY/WX    TMP DP  RH WIND       PRES   REMARKS
BRADFORD       LGT RAIN  47  45  93 SE7       29.93S FOG
DUBOIS         CLOUDY    49  47  93 SE12      29.93S
CLEARFIELD     LGT RAIN  49  47  93 E3        29.98S FOG
JOHNSTOWN      LGT RAIN  50  47  89 S8        29.97S
ALTOONA        CLOUDY    50  47  89 S10       30.01S
STATE COLLEGE  CLOUDY    50  46  87 SW6       30.01R
WILLIAMSPORT   LGT RAIN  47  45  93 E13       30.06S
SELINSGROVE    RAIN      48  44  86 S10       30.08F FOG
FT INDIANTOWN  LGT RAIN  43  43 100 NE6       30.13S FOG
CAPITAL CITY   RAIN      47  45  93 SE13      30.11F FOG
HARRISBURG     RAIN      47  44  90 SE10      30.12S FOG
YORK           LGT RAIN  47  45  93 E7        30.12R FOG
$$

PAZ038>040-043-044-047-048-054-055-060>062-067>071-011200-
EASTERN PENNSYLVANIA

CITY           SKY/WX    TMP DP  RH WIND       PRES   REMARKS
SCRANTON       LGT RAIN  44  37  76 CALM      30.13R
MOUNT POCONO   LGT RAIN  38  32  79 SE9       30.13S
ALLENTOWN      LGT RAIN  47  39  74 CALM      30.18S
QUAKERTOWN*    CLOUDY    45  41  87 CALM      30.19S
READING        RAIN      44  39  82 SE8       30.16S
LANCASTER      LGT RAIN  45  44  97 E7        30.15R FOG
COATESVILLE    LGT RAIN  45  45 100 E9        30.17S
POTTSTOWN      RAIN      42  38  85 CALM      30.20S FOG
BLUE BELL      CLOUDY    43  41  93 CALM      30.18F
DOYLESTOWN     LGT RAIN  44  42  93 CALM      30.18S
WILLOW GROVE   NOT AVBL
NORTH PHILA    RAIN      48  41  76 VRB3      30.22R
PHILADELPHIA   LGT RAIN  48  40  73 SE7       30.20R
$$




USA.gov is the U.S. government's official web portal to all federal, state and local government web resources and services.